Other Public Products
Issued by NWS Charleston, SC

Current Version | Previous Version | Graphics & Text | Print | Product List | Glossary On
Versions: 1 2 3 4 5 6 7 8 9 10 11 12 13 14 15 16 17 18 19 20 21 22 23 24 25 26 27 28 29 30 31 32 33 34 35 36 37 38 39 40 41 42 43 44 45 46 47 48 49 50
978 FPUS82 KCHS 191427 OPUCHS TEST...KCHS/KSAV Gateway Observations...TEST National Weather Service Charleston SC 900 AM EST SUN FEB 19 2017 NOTE: "fair" indicates few or no clouds below 12,000 feet with no significant weather and/or obstructions to visibility. SCZ050-WAZ558-NCZ071-TXZ119-213-PAZ071-DCZ001-FLZ074-172-MI076- NYZ176-178-MAZ016-IL014-TNZ027-NJZ106-GAZ044-MD014-191500- ...Gateway Observations for Charleston International... CITY SKY/WX TMP DP RH WIND PRES REMARKS Chas Airport MOSUNNY 59 49 69 W8 30.02R Seattle PTCLDY 41 38 89 SE3 29.38F Charlotte MOSUNNY 50 45 83 NW3 30.01R Dallas DFW FOG 63 63 100 SE6 29.90R VSB<1/4 Dallas Love CLOUDY 64 62 93 SE13 29.90R FOG Philladelphia CLOUDY 60 38 43 NW13 29.86R Wash National PTSUNNY 61 45 55 NW13G18 29.90R Baltimore CLOUDY 59 43 55 W8 29.88R Miami MOSUNNY 74 73 97 SW9 30.07R Detroit CLOUDY 45 35 68 W6 29.97R Newark CLOUDY 56 36 47 W6 29.81R Laguardia CLOUDY 59 36 42 W7 29.80R J F K CLOUDY 56 38 50 SW9 29.82R Boston Logan CLOUDY 46 36 68 SW12 29.70R Ft. Lauderdale MOSUNNY 76 73 91 SW10 30.06R Chicago O`Hare MOSUNNY 44 36 73 CALM 30.02R Chicago Midway MOSUNNY 47 38 71 CALM 30.04R Houston Bush CLOUDY 70 68 93 SE10 29.93R FOG Houston Hobby CLOUDY 70 68 93 E8 29.92R FOG Nashville CLOUDY 49 47 93 CALM 30.11R FOG Atlanta PTSUNNY 57 54 89 NW7 30.08R $$ GAZ044-118-TXZ119-213-NCZ071-DCZ001-MDZ014-506-PAZ021-071-NJZ106- NYZ176-178-MAZ106-OHZ011-021-055-MIZ076-KYZ091-ILZ014-INZ047- MNZ060-191500- ...Gateway Observations for Savannah International... CITY SKY/WX TMP DP RH WIND PRES REMARKS Savannah Arpt MOSUNNY 57 49 74 W6 30.06R Atlanta PTSUNNY 57 54 89 NW7 30.08R Charlotte MOSUNNY 50 45 83 NW3 30.01R Dallas DFW FOG 63 63 100 SE6 29.90R VSB<1/4 Houston Bush CLOUDY 70 68 93 SE10 29.93R FOG Wash National PTSUNNY 61 45 55 NW13G18 29.90R Wash Dulles CLOUDY 57 43 59 NW17 29.91R Baltimore CLOUDY 59 43 55 W8 29.88R Philadelphia CLOUDY 60 38 43 NW13 29.86R Newark CLOUDY 56 36 47 W6 29.81R Laguardia CLOUDY 59 36 42 W7 29.80R J F K CLOUDY 56 38 50 SW9 29.82R Boston CLOUDY 46 36 68 SW12 29.70R Pittsburg PTSUNNY 48 44 86 W9 29.97R Akron PTSUNNY 45 42 89 SW8 29.97R FOG Cleveland CLOUDY 46 40 79 SW7 29.99R Cincinnati CLOUDY 49 47 93 W8 30.05R FOG Columbus CLOUDY 44 44 100 SW5 30.04R FOG Detroit CLOUDY 45 35 68 W6 29.97R Chicago O`Hare MOSUNNY 44 36 73 CALM 30.02R Minneapolis MOCLDY 36 33 89 SE5 29.96R WCI 32 Indianapolis CLOUDY 49 45 86 W5 30.06R FOG $$

USA.gov is the U.S. government's official web portal to all federal, state and local government web resources and services.